Probability
0 0 0 0 0 0 0 0 0 0 0 0 0 1 2 2 2 2 2 1 0 0 1 2 3 3 2 1 1 1 3 3 3 3 3 3 3 3 1 0 0 0 0 0
0 0 0 0 0 0 0 0 0 0 0 0 0 1 2 2 1 1 1 0 0 0 1 3 4 3 3 2 2 3 3 3 3 3 3 3 3 3 2 1 0 0 0 0
0 0 0 0 0 0 0 0 0 0 0 0 0 0 1 1 0 0 0 0 0 1 3 6 6 4 4 4 4 5 5 4 3 3 3 4 3 3 3 2 2 1 1 0
0 0 0 0 0 0 0 0 0 0 0 0 0 0 0 0 0 0 0 0 1 3 5 7 7 6 5 5 7 8 7 5 5 6 7 6 4 3 3 3 3 3 2 1
0 0 0 0 0 0 0 0 0 0 0 0 0 0 0 0 0 0 0 0 2 3 5 6 7 7 7 9 9 8 8 7 7 11 13 10 6 4 3 3 4 4 3 3
0 0 0 0 0 0 0 0 0 0 0 0 0 0 0 0 1 1 1 1 1 2 4 6 7 9 12 14 13 8 6 5 8 11 12 10 7 5 5 5 5 5 4 4
0 0 0 0 0 0 0 0 0 0 0 0 0 0 0 0 1 2 1 1 1 2 4 6 9 12 15 18 17 12 7 5 7 9 8 6 5 5 6 6 6 6 5 5
0 0 0 0 0 0 0 0 0 0 0 0 0 0 0 1 2 2 1 0 1 3 5 7 11 14 16 19 19 16 12 10 10 10 7 4 3 3 3 4 5 6 6 6
0 0 0 0 0 0 0 0 0 0 0 0 0 0 1 3 3 1 0 0 2 5 7 8 11 13 15 18 18 16 15 14 13 11 7 3 1 1 1 2 3 4 5 6
0 0 0 0 0 0 0 0 0 0 0 0 0 1 2 3 4 2 1 2 3 6 7 8 9 11 14 15 14 13 13 14 13 11 7 4 2 2 2 3 3 3 4 4
0 0 0 0 0 0 0 0 0 0 0 0 1 2 2 2 4 5 5 5 5 6 7 7 7 9 11 11 10 11 12 13 13 11 8 5 4 3 3 3 3 3 3 4
0 0 0 0 0 0 0 0 0 0 0 0 1 1 1 2 5 8 9 8 7 7 6 6 5 6 7 9 9 11 12 13 13 12 10 7 5 4 3 3 4 4 5 6
0 0 0 0 0 0 0 0 0 0 0 0 0 1 1 4 7 9 10 9 8 7 6 5 5 5 6 7 9 11 13 13 13 12 11 9 6 5 4 5 6 7 8 8
0 0 0 0 0 0 0 0 0 0 0 0 0 0 2 5 7 8 9 9 9 7 5 5 5 5 5 6 7 10 12 13 12 11 11 10 8 7 7 7 8 8 8 8
0 0 0 0 0 0 0 0 0 0 1 1 1 0 2 5 6 7 9 11 10 8 6 5 5 5 5 6 7 9 11 13 12 11 10 10 11 11 10 9 8 9 8 8
0 0 0 0 0 0 0 0 0 1 1 2 2 1 1 4 6 8 11 13 12 10 8 6 6 7 8 8 8 9 12 13 13 12 11 12 13 13 12 10 10 10 9 9
0 0 0 0 0 0 0 0 0 1 1 1 1 1 2 4 5 7 10 12 12 11 10 8 8 10 11 11 11 12 15 16 15 13 12 13 13 13 12 11 11 10 10 10
0 0 0 0 0 0 0 0 0 1 0 0 0 1 2 3 4 6 9 10 10 11 11 10 10 11 12 13 14 16 18 18 15 12 13 12 11 11 11 10 9 9 8 8
0 0 0 0 0 0 0 0 0 1 0 0 0 1 3 4 4 5 8 9 9 11 12 11 11 12 12 13 15 18 20 19 15 12 13 14 13 12 11 9 8 8 7 6
0 0 0 0 0 0 0 0 0 0 0 0 0 2 5 6 4 4 6 8 10 11 12 12 12 12 12 14 17 19 20 20 18 15 17 18 17 15 12 9 7 7 7 7
0 0 0 0 0 0 0 0 0 0 0 0 0 2 6 7 6 6 8 11 14 15 14 13 13 14 14 17 20 21 21 22 21 19 20 20 18 15 11 8 6 5 7 8
0 0 0 0 0 0 0 0 0 0 0 0 0 2 5 7 9 12 14 16 18 18 17 14 14 16 17 19 21 22 22 22 21 20 19 18 16 13 11 9 7 6 7 7
1 1 1 1 0 0 1 1 1 1 0 0 1 2 5 8 12 15 18 18 17 18 18 15 15 16 18 19 20 20 20 21 20 19 18 16 14 12 11 10 9 8 7 7
2 2 2 2 1 1 2 3 2 1 0 0 1 2 6 9 11 14 17 16 14 16 18 16 15 16 17 17 18 18 18 18 18 18 16 13 11 11 10 9 8 7 7 7
2 3 3 3 2 2 3 3 3 2 2 2 1 2 5 7 9 10 11 12 12 15 17 17 16 16 15 15 16 16 15 15 16 16 14 11 10 9 8 7 6 5 5 5
1 2 3 3 2 2 3 3 3 3 3 3 1 1 3 6 6 6 7 10 11 14 16 16 17 15 13 13 15 15 14 14 14 14 12 11 10 9 8 6 4 3 4 4
Wind_Speed
2 4 2 6 6 4 3 3 3 4 2 3 4 3 4 7 7 7 7 7 8 8 6 5 6 7 6 6 6 7 6 5 4 3 2 2 2 1 1 2 3 3 2 2
4 2 6 3 3 3 3 2 2 3 1 3 1 2 2 6 9 9 8 8 8 6 4 5 6 7 7 7 7 7 7 6 6 4 3 2 2 2 2 2 2 3 3 3
4 6 2 2 2 2 2 4 4 2 2 3 2 3 2 2 4 5 5 6 6 8 8 7 7 8 7 8 9 8 8 7 6 5 3 2 1 1 0 1 1 2 2 2
4 4 1 2 3 4 4 4 4 3 3 1 1 2 5 2 3 5 6 7 8 8 8 7 7 7 8 9 7 7 6 6 5 5 4 4 3 3 3 2 2 2 1 2
4 2 2 3 4 5 4 2 4 3 3 2 2 1 7 1 4 7 8 8 8 7 8 8 8 8 7 7 7 6 5 5 5 5 6 4 3 3 1 1 1 1 1 1
5 3 4 4 1 4 4 6 6 5 5 1 2 2 6 4 7 6 6 7 7 7 7 6 6 5 5 5 5 5 5 5 5 5 5 5 5 4 2 2 1 1 1 1
4 4 2 2 2 3 5 6 4 5 4 4 2 2 8 6 6 7 7 7 6 6 6 6 6 7 6 7 6 5 5 5 4 5 5 5 5 4 4 3 2 1 1 1
2 5 3 2 5 5 4 8 7 5 4 4 2 4 7 4 3 3 3 4 4 5 6 7 8 8 8 7 7 6 6 5 4 4 4 3 3 3 2 2 2 2 2 2
6 6 3 1 2 8 5 3 5 7 3 0 4 6 8 2 1 1 2 3 4 5 6 6 6 7 7 7 7 8 7 5 5 5 4 3 3 3 3 2 2 1 1 1
7 3 4 2 4 3 4 8 6 6 5 3 4 4 5 4 4 3 2 3 4 4 5 5 5 6 6 6 6 6 6 6 5 4 4 3 3 3 3 2 2 1 1 1
4 4 4 2 3 5 4 4 5 5 5 6 3 7 6 7 7 6 5 4 4 4 4 4 4 4 4 4 5 5 5 5 4 5 4 3 3 3 2 2 2 1 1 1
3 6 2 4 3 2 5 6 7 6 4 4 4 8 5 5 6 5 5 4 3 4 4 4 4 4 4 5 5 5 5 6 5 5 4 3 3 2 2 2 2 1 1 1
5 6 2 5 5 3 1 2 4 5 5 5 5 8 3 1 1 3 4 4 3 4 3 3 4 4 4 4 5 5 5 5 5 4 4 3 2 2 3 2 2 2 1 1
6 5 7 9 8 4 2 2 4 6 5 5 7 7 6 3 3 4 4 4 4 4 4 4 4 4 4 4 4 5 5 4 4 4 4 4 4 3 3 2 2 2 2 1
5 4 4 4 4 3 3 4 5 5 7 8 8 7 9 7 7 6 4 4 5 4 4 5 6 5 5 4 4 4 4 4 4 4 4 4 3 3 2 2 2 2 2 2
3 4 2 1 1 2 2 3 5 5 4 5 3 6 6 4 3 3 4 5 6 6 6 6 5 5 5 6 6 5 5 4 5 5 5 4 4 3 3 3 2 2 2 1
2 4 3 2 2 2 3 6 6 4 4 6 7 7 3 3 6 8 7 6 7 6 6 6 6 6 6 6 6 6 6 5 5 5 4 4 4 4 4 3 2 2 2 2
5 4 3 2 2 4 8 2 4 4 2 3 3 4 4 5 4 3 4 6 6 5 5 5 5 5 5 4 5 5 5 5 5 4 4 4 4 4 4 3 3 3 2 2
5 7 5 4 3 5 6 2 4 4 3 2 3 2 2 1 2 2 3 4 6 5 5 5 5 5 5 5 5 5 5 5 5 5 4 4 5 4 4 4 3 3 2 2
4 5 6 4 4 7 8 4 1 4 3 3 3 3 2 3 1 5 3 3 3 2 2 3 3 3 4 4 5 6 5 5 5 5 4 4 4 4 4 4 3 2 2 2
3 3 3 4 4 7 6 3 3 4 8 4 4 4 4 4 5 4 2 2 2 2 2 2 3 3 4 4 6 6 5 5 5 4 4 3 4 4 4 3 3 2 2 2
5 4 3 4 3 8 3 2 5 7 3 2 3 4 4 3 1 1 1 2 2 2 1 2 3 3 3 4 6 5 5 4 3 4 3 3 3 3 3 3 2 2 3 2
4 6 6 7 7 5 3 4 3 2 2 2 3 3 3 1 0 1 1 0 1 2 1 2 3 2 2 3 5 5 5 4 4 4 3 2 2 2 3 4 3 2 2 2
2 2 3 2 5 5 5 3 2 1 2 2 2 3 3 2 1 0 0 0 1 2 1 1 2 2 1 2 3 4 3 4 5 4 3 2 2 2 2 2 3 3 3 3
4 2 2 3 5 4 5 4 2 0 1 2 2 1 3 4 2 1 0 1 1 2 2 2 2 2 1 1 1 1 2 3 3 3 2 2 2 2 1 1 1 3 3 4
5 6 6 6 6 5 6 4 2 1 1 2 2 2 2 3 2 0 1 1 1 2 2 2 2 2 1 1 1 1 2 4 4 3 2 2 2 2 2 2 0 1 2 3
Wind_Direction
51 77 200 215 191 185 176 184 245 259 217 156 197 220 195 183 188 200 205 208 216 222 215 190 188 185 180 180 181 185 187 184 166 158 167 174 212 220 231 233 232 240 239 227
42 271 236 205 168 149 160 185 263 306 97 145 180 277 232 193 202 203 206 210 216 216 202 191 188 187 185 186 188 188 192 187 183 177 167 170 183 209 217 233 241 242 237 225
189 239 211 165 163 143 200 188 205 208 41 49 70 336 299 238 211 206 209 208 206 205 203 199 194 194 189 194 197 196 196 193 191 176 144 127 96 21 291 249 242 243 234 228
232 249 179 186 204 165 239 219 175 149 104 337 88 277 290 259 246 223 218 211 206 203 198 194 191 192 196 203 198 193 190 191 189 173 170 174 188 216 227 228 242 257 243 236
248 211 188 230 226 171 207 118 114 107 116 59 26 142 287 302 256 244 225 216 211 200 195 193 192 192 191 190 187 184 179 187 185 179 180 181 205 219 221 212 239 265 292 264
244 236 200 211 205 145 130 76 61 51 69 25 254 169 277 244 228 236 221 212 207 197 194 195 190 182 180 172 169 170 174 190 188 181 182 185 196 195 188 215 223 251 268 279
313 304 252 156 87 42 90 87 38 7 12 261 264 186 253 255 233 218 218 213 200 190 187 188 182 183 181 172 170 167 172 191 190 179 182 186 189 186 191 199 205 214 244 265
203 282 255 185 167 169 162 138 154 188 217 272 324 240 259 273 257 233 229 214 187 187 191 194 193 188 185 178 171 167 174 181 174 171 178 179 178 183 195 199 194 199 218 238
183 247 278 227 166 138 138 164 158 132 147 259 282 284 301 308 321 279 222 197 198 200 193 193 189 187 183 178 177 175 176 172 171 174 166 160 170 178 187 187 185 205 232 237
163 219 286 283 79 49 134 142 103 117 148 232 283 272 253 264 252 247 227 213 206 198 190 185 182 186 182 180 178 171 169 174 171 171 172 174 183 187 182 171 184 206 233 248
137 163 294 21 162 185 113 102 107 116 150 160 227 264 226 219 218 214 218 211 197 192 187 176 168 166 168 169 170 168 167 166 170 177 180 180 186 188 179 177 191 195 204 216
144 127 223 263 267 192 155 159 147 152 201 173 179 261 273 228 218 203 207 206 192 178 176 164 159 153 165 176 176 175 177 180 189 187 179 181 185 173 172 186 202 197 193 198
136 113 84 339 337 358 90 143 148 131 123 154 175 257 304 338 251 211 194 195 185 164 155 145 151 168 180 181 174 178 184 191 191 179 174 169 174 183 192 202 199 183 176 166
114 118 161 194 216 207 225 195 160 137 152 193 218 242 282 273 246 240 211 191 179 173 166 164 174 187 187 183 182 181 185 185 174 166 168 175 187 196 198 192 187 184 175 165
104 143 195 218 216 180 198 209 184 183 187 187 218 222 245 234 220 222 208 186 179 190 194 192 189 189 187 182 182 181 178 172 168 165 174 191 191 181 179 183 187 185 179 181
79 139 153 254 220 185 215 233 205 208 194 201 213 249 250 233 191 204 210 198 199 205 207 204 194 186 189 187 181 175 173 175 168 172 182 182 171 170 188 195 185 176 177 152
97 125 126 231 295 68 257 226 201 206 205 180 205 236 242 206 207 208 206 205 211 213 210 201 198 197 199 194 183 180 179 172 169 174 177 178 172 180 192 192 173 181 184 161
139 118 128 145 97 216 240 246 182 182 211 206 223 246 224 226 231 230 207 202 213 217 214 211 206 203 203 195 179 168 160 164 168 173 181 182 176 183 185 178 184 190 184 177
155 138 125 130 177 258 288 250 170 174 233 219 217 261 296 19 38 297 223 203 213 212 212 209 205 204 193 185 172 157 160 165 170 181 188 189 185 185 183 187 195 191 182 184
71 101 119 135 163 221 242 261 210 127 252 257 200 204 181 105 166 258 242 209 219 214 201 193 174 166 174 180 160 156 168 172 189 195 194 187 183 183 188 192 188 188 180 187
52 56 122 161 203 251 258 288 104 154 238 244 197 193 175 190 219 242 240 238 208 187 180 152 145 168 184 170 153 162 172 192 197 180 172 174 177 179 180 179 171 166 168 161
162 149 172 146 184 250 281 116 171 218 233 190 189 186 185 214 272 268 216 196 170 149 150 146 150 177 173 159 154 167 190 193 161 156 164 171 170 169 159 154 156 156 160 170
184 182 181 186 213 248 260 228 247 206 197 203 195 205 174 153 331 333 310 193 137 138 164 165 155 155 157 161 162 178 197 168 156 155 161 168 167 170 167 165 171 170 174 184
251 153 138 244 268 276 277 274 296 217 194 221 195 171 141 137 158 13 325 357 87 95 87 88 116 135 168 171 174 190 184 163 161 164 165 163 173 186 179 169 175 173 186 192
218 165 147 244 271 298 297 287 282 298 69 83 73 129 141 134 136 153 274 169 127 99 91 100 124 150 195 168 178 188 166 154 161 159 154 168 174 171 166 156 189 199 208 205
208 185 181 223 228 215 249 261 245 178 162 150 117 87 93 123 143 135 236 208 142 116 113 120 130 146 175 169 190 183 161 159 158 164 175 190 188 182 177 168 160 341 231 224